QPF
0.07 0.04 0.05 0.06 0.01 0.01 0.01 0.02 0.02 0.01 0.00 0.00 0.00 0.00 0.00 0.00 0.00 0.00 0.00 0.00 0.05 0.06 0.03 0.02 0.03 0.04 0.00 0.00 0.00 0.00 0.00 0.00 0.00 0.00 0.00 0.01 0.00 0.00 0.00 0.00 0.00 0.00 0.00
0.03 0.09 0.14 0.09 0.03 0.01 0.01 0.02 0.01 0.00 0.00 0.00 0.00 0.00 0.00 0.00 0.00 0.00 0.00 0.02 0.03 0.02 0.02 0.02 0.00 0.00 0.00 0.00 0.00 0.00 0.00 0.00 0.00 0.02 0.01 0.02 0.01 0.00 0.00 0.00 0.01 0.00 0.00
0.01 0.05 0.06 0.10 0.04 0.01 0.01 0.01 0.00 0.00 0.00 0.00 0.00 0.00 0.00 0.00 0.00 0.00 0.00 0.00 0.00 0.00 0.02 0.00 0.02 0.00 0.00 0.00 0.00 0.00 0.00 0.00 0.00 0.03 0.03 0.02 0.00 0.00 0.00 0.00 0.00 0.00 0.01
0.01 0.03 0.04 0.11 0.05 0.01 0.01 0.00 0.00 0.00 0.00 0.00 0.00 0.00 0.00 0.00 0.00 0.00 0.00 0.00 0.01 0.00 0.01 0.01 0.01 0.00 0.00 0.00 0.00 0.00 0.01 0.00 0.00 0.00 0.00 0.01 0.00 0.00 0.02 0.00 0.00 0.00 0.00
0.02 0.00 0.04 0.10 0.03 0.01 0.00 0.00 0.00 0.00 0.00 0.00 0.00 0.00 0.00 0.00 0.00 0.00 0.00 0.02 0.02 0.00 0.00 0.00 0.05 0.03 0.00 0.00 0.00 0.01 0.08 0.04 0.00 0.00 0.02 0.08 0.00 0.01 0.07 0.11 0.04 0.02 0.00
0.00 0.00 0.02 0.05 0.00 0.00 0.00 0.00 0.00 0.00 0.00 0.00 0.00 0.00 0.00 0.00 0.00 0.00 0.00 0.02 0.00 0.00 0.00 0.00 0.02 0.07 0.02 0.01 0.03 0.04 0.02 0.04 0.01 0.00 0.00 0.04 0.10 0.00 0.03 0.12 0.09 0.02 0.00
0.00 0.00 0.00 0.01 0.00 0.00 0.00 0.00 0.00 0.00 0.00 0.00 0.00 0.00 0.00 0.00 0.00 0.00 0.00 0.00 0.00 0.00 0.00 0.00 0.00 0.02 0.02 0.01 0.02 0.03 0.07 0.06 0.02 0.00 0.00 0.03 0.07 0.03 0.04 0.05 0.06 0.05 0.04
0.00 0.00 0.00 0.00 0.00 0.00 0.00 0.00 0.00 0.00 0.00 0.00 0.00 0.00 0.00 0.00 0.00 0.00 0.00 0.00 0.00 0.00 0.00 0.00 0.00 0.00 0.00 0.00 0.00 0.03 0.01 0.00 0.00 0.00 0.00 0.01 0.02 0.12 0.07 0.00 0.01 0.02 0.02
0.00 0.00 0.00 0.00 0.00 0.00 0.00 0.00 0.00 0.00 0.00 0.00 0.00 0.00 0.00 0.00 0.00 0.00 0.00 0.00 0.00 0.00 0.00 0.00 0.00 0.00 0.00 0.00 0.00 0.01 0.01 0.00 0.00 0.00 0.00 0.00 0.01 0.07 0.04 0.00 0.00 0.00 0.00
0.00 0.00 0.00 0.00 0.00 0.00 0.00 0.00 0.00 0.00 0.00 0.00 0.00 0.00 0.00 0.00 0.00 0.00 0.00 0.00 0.00 0.00 0.00 0.00 0.00 0.00 0.00 0.00 0.00 0.00 0.00 0.00 0.00 0.00 0.00 0.00 0.01 0.05 0.01 0.00 0.00 0.00 0.00
0.00 0.00 0.00 0.00 0.00 0.00 0.00 0.00 0.00 0.00 0.00 0.00 0.00 0.00 0.00 0.01 0.00 0.00 0.01 0.01 0.01 0.00 0.00 0.00 0.00 0.00 0.00 0.00 0.00 0.00 0.00 0.00 0.00 0.00 0.00 0.00 0.00 0.03 0.00 0.01 0.00 0.00 0.00
0.00 0.00 0.00 0.00 0.00 0.00 0.00 0.00 0.00 0.00 0.00 0.00 0.00 0.00 0.00 0.00 0.00 0.00 0.03 0.02 0.00 0.00 0.00 0.00 0.00 0.00 0.00 0.00 0.00 0.00 0.00 0.00 0.00 0.00 0.00 0.00 0.00 0.00 0.01 0.04 0.02 0.00 0.00
0.00 0.00 0.00 0.00 0.00 0.00 0.00 0.00 0.00 0.00 0.00 0.00 0.00 0.00 0.00 0.00 0.00 0.00 0.00 0.00 0.00 0.01 0.00 0.01 0.00 0.00 0.00 0.00 0.00 0.00 0.00 0.00 0.00 0.00 0.00 0.00 0.01 0.03 0.00 0.03 0.02 0.01 0.01
0.00 0.00 0.00 0.00 0.00 0.00 0.00 0.00 0.00 0.00 0.00 0.00 0.00 0.00 0.00 0.00 0.00 0.00 0.00 0.00 0.00 0.00 0.02 0.06 0.08 0.06 0.00 0.00 0.00 0.00 0.00 0.00 0.00 0.00 0.00 0.00 0.00 0.08 0.07 0.01 0.00 0.00 0.00
0.00 0.00 0.00 0.00 0.00 0.00 0.00 0.00 0.00 0.00 0.00 0.00 0.00 0.00 0.00 0.00 0.00 0.00 0.00 0.00 0.00 0.01 0.05 0.05 0.07 0.06 0.00 0.00 0.00 0.00 0.00 0.00 0.00 0.00 0.00 0.00 0.00 0.01 0.04 0.08 0.03 0.00 0.00
0.00 0.00 0.00 0.00 0.00 0.00 0.00 0.00 0.00 0.00 0.00 0.00 0.00 0.00 0.00 0.00 0.00 0.05 0.02 0.00 0.00 0.01 0.09 0.10 0.07 0.04 0.01 0.00 0.00 0.00 0.00 0.00 0.00 0.00 0.00 0.00 0.00 0.00 0.00 0.02 0.05 0.04 0.00
0.00 0.00 0.00 0.00 0.00 0.00 0.00 0.00 0.00 0.00 0.00 0.00 0.00 0.00 0.00 0.00 0.02 0.11 0.08 0.00 0.03 0.09 0.08 0.06 0.05 0.01 0.00 0.00 0.00 0.00 0.00 0.00 0.00 0.00 0.00 0.00 0.00 0.00 0.00 0.00 0.02 0.05 0.04
0.00 0.00 0.00 0.00 0.00 0.00 0.00 0.00 0.00 0.00 0.00 0.00 0.00 0.00 0.00 0.00 0.00 0.05 0.03 0.00 0.05 0.10 0.03 0.04 0.01 0.01 0.00 0.00 0.00 0.00 0.00 0.00 0.00 0.00 0.00 0.00 0.00 0.00 0.00 0.00 0.00 0.00 0.01
0.00 0.00 0.00 0.00 0.00 0.00 0.00 0.00 0.00 0.00 0.00 0.00 0.00 0.00 0.00 0.00 0.00 0.00 0.00 0.00 0.03 0.03 0.03 0.04 0.02 0.00 0.00 0.00 0.00 0.00 0.00 0.00 0.00 0.00 0.00 0.00 0.00 0.00 0.00 0.00 0.00 0.00 0.00
0.00 0.00 0.00 0.00 0.00 0.00 0.00 0.00 0.00 0.00 0.00 0.00 0.00 0.00 0.00 0.00 0.00 0.00 0.01 0.10 0.04 0.00 0.02 0.02 0.02 0.00 0.00 0.00 0.00 0.00 0.00 0.00 0.00 0.00 0.00 0.00 0.00 0.00 0.00 0.00 0.00 0.00 0.00
0.00 0.00 0.00 0.00 0.00 0.00 0.00 0.00 0.00 0.00 0.00 0.00 0.00 0.00 0.00 0.00 0.00 0.00 0.00 0.04 0.08 0.02 0.00 0.00 0.00 0.00 0.00 0.00 0.00 0.00 0.00 0.00 0.00 0.00 0.00 0.00 0.00 0.00 0.00 0.00 0.01 0.00 0.00
0.00 0.00 0.00 0.00 0.00 0.00 0.00 0.00 0.00 0.00 0.00 0.00 0.00 0.00 0.00 0.00 0.00 0.00 0.02 0.00 0.01 0.02 0.01 0.00 0.00 0.00 0.00 0.00 0.00 0.00 0.00 0.00 0.00 0.00 0.00 0.00 0.00 0.00 0.00 0.00 0.00 0.00 0.00
0.00 0.00 0.00 0.00 0.00 0.00 0.00 0.00 0.00 0.00 0.00 0.00 0.00 0.00 0.00 0.00 0.00 0.00 0.05 0.03 0.01 0.04 0.01 0.00 0.00 0.00 0.00 0.00 0.00 0.00 0.00 0.00 0.00 0.00 0.00 0.00 0.00 0.00 0.00 0.00 0.00 0.00 0.00
0.00 0.00 0.00 0.00 0.00 0.00 0.00 0.00 0.00 0.00 0.00 0.00 0.00 0.00 0.00 0.00 0.00 0.00 0.00 0.02 0.02 0.00 0.01 0.00 0.00 0.00 0.00 0.00 0.00 0.00 0.00 0.00 0.00 0.00 0.00 0.00 0.00 0.00 0.00 0.00 0.00 0.00 0.00
0.00 0.00 0.00 0.00 0.00 0.00 0.00 0.00 0.00 0.00 0.00 0.00 0.00 0.00 0.00 0.00 0.00 0.00 0.00 0.00 0.00 0.00 0.00 0.00 0.00 0.00 0.00 0.00 0.00 0.00 0.00 0.00 0.00 0.00 0.00 0.00 0.00 0.00 0.00 0.00 0.00 0.00 0.00
0.00 0.00 0.00 0.00 0.00 0.00 0.00 0.00 0.00 0.00 0.00 0.00 0.00 0.00 0.00 0.00 0.00 0.00 0.00 0.00 0.00 0.00 0.00 0.00 0.00 0.00 0.00 0.00 0.00 0.00 0.00 0.00 0.00 0.00 0.00 0.00 0.00 0.00 0.00 0.00 0.00 0.00 0.00
MSLP
1015.50 1015.29 1015.36 1015.64 1015.71 1015.91 1016.16 1016.36 1016.44 1016.55 1016.74 1016.91 1017.10 1017.20 1017.34 1017.54 1017.72 1017.79 1017.84 1017.90 1017.92 1017.93 1017.98 1018.06 1018.13 1018.19 1018.24 1018.34 1018.41 1018.46 1018.45 1018.46 1018.47 1018.47 1018.53 1018.60 1018.64 1018.72 1018.72 1018.65 1018.38 1018.07 1018.95
1015.32 1015.50 1015.67 1015.87 1015.95 1016.18 1016.40 1016.63 1016.65 1016.81 1017.07 1017.25 1017.43 1017.51 1017.69 1017.92 1017.99 1018.03 1018.04 1018.11 1018.14 1018.13 1018.24 1018.27 1018.31 1018.36 1018.45 1018.55 1018.62 1018.67 1018.66 1018.70 1018.69 1018.67 1018.71 1018.85 1018.97 1018.95 1018.95 1018.94 1018.32 1018.77 1019.11
1015.73 1015.93 1015.91 1016.09 1016.24 1016.42 1016.70 1016.86 1016.95 1017.12 1017.39 1017.56 1017.78 1017.83 1018.04 1018.17 1018.17 1018.25 1018.29 1018.33 1018.36 1018.40 1018.49 1018.48 1018.55 1018.58 1018.64 1018.68 1018.72 1018.78 1018.73 1018.85 1018.87 1018.97 1018.70 1018.24 1018.34 1019.21 1019.25 1019.18 1019.11 1019.28 1019.32
1015.75 1015.61 1015.74 1016.40 1016.43 1016.69 1016.91 1017.11 1017.21 1017.45 1017.68 1017.90 1018.06 1018.17 1018.36 1018.38 1018.38 1018.47 1018.48 1018.46 1018.48 1018.56 1018.55 1018.56 1018.57 1018.66 1018.73 1018.72 1018.76 1018.85 1018.89 1019.00 1019.03 1018.75 1018.03 1017.43 1018.03 1019.49 1019.45 1019.54 1019.61 1019.58 1019.60
1014.86 1014.84 1015.96 1016.54 1016.69 1016.93 1017.14 1017.33 1017.53 1017.76 1017.98 1018.19 1018.32 1018.47 1018.56 1018.59 1018.63 1018.67 1018.66 1018.76 1018.67 1018.74 1018.75 1018.70 1018.67 1018.75 1018.71 1018.70 1018.75 1018.86 1019.01 1019.08 1019.13 1018.62 1018.29 1018.53 1017.93 1019.54 1019.69 1019.83 1019.80 1019.92 1019.88
1014.64 1014.84 1016.48 1016.69 1016.91 1017.10 1017.41 1017.63 1017.87 1018.04 1018.27 1018.42 1018.52 1018.71 1018.78 1018.78 1018.78 1018.77 1018.84 1018.91 1018.83 1018.85 1018.94 1018.93 1018.95 1018.83 1018.82 1018.79 1018.80 1018.94 1019.02 1019.28 1019.12 1018.48 1018.36 1018.97 1018.59 1019.70 1020.01 1020.09 1020.04 1020.12 1020.27
1014.12 1014.88 1016.14 1016.81 1017.10 1017.36 1017.66 1017.90 1018.08 1018.26 1018.47 1018.63 1018.77 1018.86 1018.90 1018.92 1018.94 1018.96 1018.99 1019.07 1019.01 1019.02 1019.05 1019.04 1019.03 1018.93 1018.90 1018.88 1018.92 1019.04 1019.07 1019.22 1018.73 1018.64 1018.39 1019.19 1019.41 1020.06 1020.20 1020.28 1020.35 1020.47 1020.59
1014.06 1014.69 1015.96 1016.94 1017.30 1017.55 1017.81 1018.09 1018.26 1018.51 1018.73 1018.85 1018.91 1018.98 1019.02 1019.07 1019.11 1019.12 1019.13 1019.16 1019.15 1019.13 1019.16 1019.20 1019.23 1019.18 1019.08 1019.06 1019.16 1019.21 1019.18 1019.03 1018.56 1018.85 1018.73 1018.80 1020.10 1020.39 1020.45 1020.51 1020.60 1020.72 1020.81
1013.84 1014.52 1015.72 1016.43 1017.26 1017.71 1017.99 1018.27 1018.48 1018.73 1018.86 1018.98 1019.00 1019.04 1019.11 1019.21 1019.25 1019.27 1019.30 1019.31 1019.26 1019.20 1019.22 1019.31 1019.33 1019.35 1019.30 1019.30 1019.30 1019.36 1019.41 1019.33 1018.78 1018.87 1018.70 1018.83 1020.36 1020.66 1020.65 1020.72 1020.83 1020.91 1021.03
1013.96 1014.58 1015.46 1016.06 1016.80 1017.24 1017.80 1018.42 1018.62 1018.80 1018.94 1019.02 1019.06 1019.11 1019.17 1019.24 1019.24 1019.29 1019.24 1019.35 1019.32 1019.31 1019.30 1019.31 1019.32 1019.38 1019.38 1019.45 1019.48 1019.52 1019.51 1019.31 1018.77 1018.90 1018.83 1019.53 1020.52 1020.84 1020.80 1020.98 1021.05 1021.18 1021.31
1014.25 1014.71 1015.25 1015.72 1016.50 1017.04 1017.43 1018.17 1018.65 1018.84 1018.93 1018.98 1018.97 1019.12 1019.08 1018.32 1018.28 1018.36 1019.15 1019.36 1019.37 1019.40 1019.32 1019.26 1019.24 1019.24 1019.14 1019.17 1019.50 1019.50 1019.13 1018.31 1018.54 1018.60 1018.88 1020.35 1020.73 1020.83 1020.87 1021.07 1021.24 1021.42 1021.55
1014.07 1014.60 1015.06 1015.55 1016.26 1016.84 1016.99 1017.77 1018.03 1018.06 1018.02 1018.02 1018.07 1018.50 1018.04 1018.40 1018.64 1018.76 1019.00 1019.35 1019.36 1019.45 1019.36 1019.30 1019.13 1018.84 1018.90 1018.04 1018.51 1018.78 1017.72 1018.56 1018.47 1018.61 1019.01 1020.55 1020.80 1020.81 1020.96 1021.17 1021.39 1021.64 1021.73
1013.97 1014.51 1015.06 1015.73 1016.36 1016.66 1016.79 1017.34 1017.52 1017.68 1017.70 1018.03 1018.43 1018.48 1018.39 1018.47 1018.46 1018.05 1018.19 1018.36 1018.44 1019.00 1018.47 1018.65 1018.28 1018.48 1018.33 1018.52 1018.39 1017.62 1017.94 1018.27 1018.18 1018.54 1019.98 1020.65 1020.89 1020.91 1020.96 1021.30 1021.50 1021.68 1021.81
1013.90 1014.41 1014.97 1015.65 1016.42 1016.65 1016.84 1017.17 1017.16 1017.35 1017.63 1017.67 1017.93 1018.63 1018.59 1018.32 1018.33 1018.35 1017.88 1018.20 1018.48 1018.40 1018.84 1019.06 1019.10 1018.92 1018.31 1018.62 1018.07 1018.18 1018.17 1017.75 1017.91 1018.30 1019.96 1020.60 1020.82 1020.93 1021.04 1021.26 1021.51 1021.59 1021.74
1013.75 1014.34 1014.90 1015.66 1016.46 1016.75 1017.10 1016.96 1017.02 1017.34 1017.59 1017.48 1017.95 1018.36 1018.32 1018.20 1018.32 1018.25 1018.34 1018.09 1018.32 1018.73 1018.88 1018.77 1018.88 1018.88 1018.64 1018.53 1018.30 1018.21 1018.28 1018.39 1018.47 1018.11 1018.89 1020.58 1020.83 1020.96 1021.03 1021.19 1021.31 1021.54 1021.73
1013.50 1014.12 1014.85 1015.58 1016.29 1016.73 1016.99 1017.24 1017.32 1017.48 1017.33 1017.62 1017.65 1017.91 1018.60 1018.35 1018.51 1018.54 1018.21 1018.15 1018.34 1018.23 1018.49 1019.35 1019.04 1019.04 1018.85 1018.49 1018.94 1018.49 1018.18 1018.18 1018.83 1018.79 1018.32 1019.95 1020.66 1020.85 1020.94 1021.05 1021.20 1021.32 1021.49
1013.24 1013.95 1014.62 1015.37 1015.91 1016.60 1016.86 1017.22 1017.40 1017.14 1017.26 1017.31 1017.53 1018.09 1018.40 1018.63 1018.42 1018.74 1018.51 1018.17 1018.24 1018.84 1018.94 1018.97 1019.47 1019.36 1018.89 1018.81 1019.10 1018.84 1018.21 1018.52 1018.30 1018.78 1018.54 1018.53 1020.01 1020.56 1020.81 1020.95 1021.10 1021.23 1021.40
1012.90 1013.69 1014.49 1014.93 1015.46 1016.18 1016.52 1016.83 1016.96 1016.88 1017.10 1017.14 1017.30 1017.65 1018.17 1018.42 1018.55 1018.39 1018.05 1017.86 1018.17 1018.89 1018.79 1018.87 1019.15 1018.39 1018.45 1018.90 1019.24 1018.52 1018.18 1018.42 1018.85 1018.86 1018.70 1018.78 1019.02 1019.02 1020.42 1020.87 1020.99 1021.09 1021.22
1012.62 1013.49 1014.24 1014.75 1015.09 1015.70 1016.26 1016.44 1016.75 1016.85 1017.08 1016.91 1017.07 1017.26 1017.69 1018.18 1018.33 1018.36 1017.82 1017.67 1018.33 1018.30 1018.59 1018.79 1018.67 1018.60 1018.61 1018.47 1018.38 1018.49 1018.70 1018.73 1018.48 1018.29 1018.98 1019.09 1019.47 1019.07 1019.05 1020.66 1020.94 1021.05 1021.16
1012.16 1013.13 1013.94 1014.44 1014.90 1015.51 1015.94 1016.38 1016.30 1016.39 1016.66 1016.75 1016.75 1016.91 1017.37 1017.75 1018.00 1018.16 1017.79 1018.25 1018.25 1017.91 1018.28 1018.35 1018.85 1018.89 1018.88 1018.82 1018.34 1018.57 1018.89 1019.28 1018.52 1018.32 1018.75 1018.71 1019.25 1019.39 1019.26 1019.74 1019.99 1020.48 1020.99
1011.45 1012.42 1013.29 1013.94 1014.49 1015.11 1015.44 1015.60 1015.83 1015.83 1016.13 1016.39 1016.47 1016.82 1017.23 1017.45 1017.62 1017.85 1017.59 1017.98 1018.42 1018.30 1018.32 1018.65 1018.64 1019.07 1018.75 1019.07 1018.55 1018.46 1018.84 1019.00 1018.93 1018.77 1018.63 1018.37 1019.09 1018.86 1019.30 1019.62 1019.33 1019.77 1020.35
1010.59 1011.52 1012.52 1013.27 1013.98 1014.63 1014.85 1015.11 1015.25 1015.51 1015.59 1015.82 1015.96 1016.28 1016.68 1016.88 1017.24 1017.37 1017.51 1017.40 1017.78 1017.92 1018.45 1018.68 1018.99 1018.52 1018.73 1019.03 1018.38 1017.96 1018.09 1018.67 1018.63 1018.80 1019.20 1018.95 1019.19 1019.02 1019.52 1019.81 1020.07 1020.25 1019.87
1009.58 1010.59 1011.52 1012.50 1013.22 1013.96 1014.29 1014.86 1015.32 1015.41 1015.58 1015.49 1015.53 1015.82 1016.12 1016.53 1016.78 1017.07 1017.26 1017.43 1017.59 1018.13 1017.72 1018.56 1018.91 1019.03 1018.42 1019.13 1019.18 1018.30 1018.02 1017.68 1018.08 1018.79 1019.33 1019.09 1019.61 1019.42 1019.70 1020.08 1020.04 1020.23 1020.29
1008.48 1009.71 1010.68 1011.74 1012.55 1013.30 1013.94 1013.94 1014.37 1014.46 1014.43 1014.55 1014.97 1015.19 1015.40 1016.14 1016.36 1016.61 1016.97 1017.28 1017.57 1017.36 1017.79 1018.26 1018.64 1018.82 1019.04 1018.63 1019.06 1019.06 1019.10 1018.65 1017.77 1017.86 1018.74 1019.00 1019.40 1019.48 1019.84 1019.72 1019.92 1020.21 1020.52
1007.73 1008.73 1009.81 1010.95 1011.83 1012.40 1013.13 1013.28 1013.66 1013.94 1013.86 1014.04 1014.38 1014.72 1015.36 1015.61 1016.02 1016.14 1016.60 1016.95 1017.29 1017.51 1017.69 1018.14 1018.51 1018.90 1018.77 1018.44 1018.43 1018.69 1018.97 1018.89 1018.88 1018.07 1017.51 1018.38 1018.96 1018.99 1019.26 1019.67 1019.49 1019.63 1020.36
1006.82 1007.87 1008.85 1009.91 1010.88 1011.73 1012.26 1012.91 1012.93 1013.02 1013.29 1013.42 1013.87 1014.12 1014.60 1015.04 1015.37 1015.82 1016.07 1016.56 1016.89 1017.10 1017.42 1017.75 1018.18 1018.55 1018.68 1018.71 1018.43 1018.50 1018.25 1018.18 1018.08 1018.24 1017.98 1018.05 1017.96 1018.40 1019.01 1019.18 1019.56 1019.59 1019.58
Thickness
5756 5759 5759 5758 5758 5756 5755 5753 5754 5754 5752 5751 5750 5750 5749 5748 5747 5746 5745 5745 5744 5744 5744 5744 5744 5743 5743 5743 5743 5742 5741 5740 5740 5739 5738 5737 5738 5739 5740 5742 5746 5749 5745
5760 5760 5758 5757 5757 5756 5755 5753 5754 5753 5751 5750 5749 5749 5748 5746 5746 5745 5745 5745 5744 5744 5744 5744 5744 5743 5743 5742 5742 5740 5740 5740 5739 5738 5738 5737 5737 5738 5740 5741 5746 5744 5744
5759 5758 5759 5757 5757 5756 5754 5753 5753 5752 5749 5748 5747 5747 5746 5745 5745 5744 5745 5744 5744 5744 5744 5745 5744 5743 5743 5742 5741 5740 5740 5739 5739 5738 5740 5742 5742 5738 5739 5741 5742 5742 5743
5761 5762 5760 5757 5757 5756 5754 5753 5752 5750 5748 5747 5746 5746 5745 5745 5744 5744 5744 5744 5744 5745 5745 5746 5746 5745 5744 5743 5742 5741 5741 5740 5739 5742 5746 5750 5746 5736 5738 5739 5739 5741 5742
5767 5767 5760 5757 5757 5755 5754 5752 5751 5748 5747 5746 5746 5745 5745 5744 5744 5744 5744 5743 5744 5744 5744 5745 5745 5744 5744 5744 5743 5741 5740 5739 5739 5743 5744 5743 5747 5736 5736 5737 5738 5738 5739
5770 5769 5757 5756 5756 5755 5752 5751 5748 5747 5746 5746 5746 5745 5745 5745 5744 5745 5745 5744 5744 5744 5743 5744 5744 5745 5745 5744 5743 5741 5739 5736 5738 5743 5745 5742 5744 5737 5735 5735 5737 5737 5737
5775 5769 5760 5756 5755 5753 5751 5749 5748 5747 5746 5746 5745 5745 5745 5745 5745 5745 5745 5744 5744 5744 5744 5745 5744 5745 5745 5745 5743 5741 5739 5735 5740 5741 5744 5740 5739 5736 5735 5734 5734 5735 5734
5777 5771 5762 5756 5754 5752 5750 5748 5748 5747 5746 5746 5746 5745 5745 5745 5745 5745 5745 5745 5745 5746 5746 5746 5745 5745 5745 5744 5743 5741 5740 5738 5739 5740 5743 5744 5736 5734 5734 5733 5733 5732 5733
5779 5774 5764 5760 5754 5751 5749 5748 5748 5747 5747 5747 5746 5746 5746 5746 5746 5746 5746 5746 5747 5748 5748 5747 5746 5746 5745 5745 5743 5741 5740 5737 5739 5741 5745 5745 5735 5733 5733 5732 5731 5731 5730
5779 5775 5768 5764 5758 5755 5752 5749 5749 5749 5748 5748 5748 5749 5749 5749 5749 5749 5750 5750 5750 5750 5749 5749 5748 5747 5746 5745 5744 5743 5741 5741 5744 5744 5746 5742 5735 5732 5732 5731 5730 5729 5728
5777 5775 5771 5767 5762 5759 5757 5753 5751 5751 5751 5751 5752 5752 5754 5758 5758 5759 5754 5753 5753 5752 5752 5752 5751 5750 5750 5750 5746 5745 5747 5750 5749 5749 5748 5738 5734 5733 5731 5730 5729 5728 5727
5775 5776 5774 5770 5765 5763 5762 5758 5758 5758 5760 5761 5761 5759 5763 5760 5758 5758 5757 5755 5754 5754 5754 5754 5755 5756 5755 5760 5756 5754 5760 5752 5752 5751 5748 5737 5734 5733 5731 5728 5727 5726 5725
5778 5778 5775 5771 5767 5766 5767 5764 5763 5763 5765 5763 5761 5761 5762 5762 5763 5766 5765 5764 5763 5759 5761 5759 5762 5760 5760 5757 5757 5763 5760 5756 5756 5752 5742 5737 5734 5732 5731 5729 5727 5725 5724
5778 5778 5777 5773 5768 5768 5768 5767 5768 5768 5767 5768 5768 5763 5763 5766 5766 5767 5771 5768 5765 5765 5760 5758 5757 5758 5762 5759 5762 5760 5759 5761 5760 5756 5743 5738 5735 5734 5732 5729 5727 5726 5725
5778 5779 5778 5774 5770 5769 5768 5770 5771 5770 5769 5772 5770 5767 5767 5769 5769 5769 5769 5771 5769 5764 5762 5761 5759 5759 5761 5761 5762 5762 5760 5758 5757 5758 5751 5739 5736 5735 5733 5732 5730 5728 5726
5782 5780 5780 5776 5772 5771 5771 5770 5770 5771 5774 5773 5773 5772 5767 5769 5769 5769 5772 5772 5769 5769 5767 5759 5760 5759 5761 5763 5759 5762 5763 5762 5756 5755 5757 5744 5738 5736 5734 5733 5732 5730 5728
5784 5783 5780 5778 5775 5773 5773 5771 5771 5775 5776 5777 5776 5772 5770 5769 5771 5769 5771 5772 5770 5765 5763 5762 5758 5758 5761 5761 5760 5761 5763 5760 5761 5756 5756 5755 5743 5738 5736 5734 5732 5731 5729
5787 5783 5782 5783 5780 5777 5777 5775 5776 5778 5778 5780 5780 5777 5774 5772 5772 5773 5776 5776 5772 5765 5764 5763 5761 5766 5765 5761 5758 5764 5764 5761 5756 5755 5755 5754 5751 5749 5739 5735 5733 5732 5730
5789 5785 5782 5783 5783 5782 5779 5779 5778 5779 5779 5782 5782 5782 5779 5775 5774 5774 5778 5778 5772 5770 5767 5765 5765 5765 5763 5765 5765 5762 5759 5758 5758 5758 5753 5751 5748 5749 5749 5737 5734 5733 5731
5793 5788 5785 5785 5785 5784 5783 5780 5782 5784 5783 5784 5785 5785 5782 5779 5777 5776 5777 5774 5773 5776 5772 5771 5764 5764 5763 5762 5764 5760 5757 5753 5756 5758 5753 5753 5749 5747 5748 5743 5741 5737 5733
5798 5793 5790 5788 5788 5787 5785 5784 5784 5784 5787 5787 5787 5785 5783 5781 5779 5778 5779 5775 5772 5773 5772 5769 5768 5762 5763 5761 5760 5759 5756 5754 5752 5752 5753 5755 5750 5752 5748 5745 5746 5741 5737
5803 5799 5795 5792 5791 5790 5790 5791 5792 5791 5792 5791 5790 5789 5787 5785 5782 5781 5780 5780 5776 5775 5770 5769 5765 5765 5763 5760 5758 5759 5747 5749 5752 5750 5747 5750 5749 5749 5745 5742 5739 5738 5739
5810 5805 5802 5798 5796 5795 5796 5794 5791 5792 5790 5791 5792 5792 5790 5787 5785 5782 5780 5778 5777 5772 5776 5769 5765 5761 5762 5758 5757 5757 5747 5742 5749 5748 5743 5747 5742 5744 5741 5737 5737 5737 5736
5818 5814 5808 5803 5800 5799 5798 5798 5794 5793 5791 5797 5797 5798 5796 5789 5786 5784 5782 5779 5777 5777 5774 5771 5769 5766 5761 5758 5757 5757 5754 5752 5748 5741 5746 5746 5744 5742 5739 5739 5737 5735 5731
5825 5821 5817 5810 5804 5804 5801 5802 5799 5796 5800 5802 5801 5799 5794 5793 5788 5787 5784 5781 5779 5777 5775 5771 5768 5764 5765 5764 5761 5757 5753 5753 5750 5749 5746 5744 5746 5747 5744 5739 5739 5737 5730
5832 5827 5824 5817 5811 5809 5807 5803 5803 5802 5802 5802 5800 5798 5797 5796 5794 5789 5787 5783 5780 5779 5777 5774 5771 5768 5766 5764 5765 5762 5759 5754 5753 5749 5746 5747 5748 5749 5746 5744 5739 5737 5736